DateTimeUTC,F1_A11,F1_S11,BsB_S11,BsG_S11,BsR_S11,BbsB_S11,BbsG_S11,BbsR_S11,BaB_A11,BaG_A11,BaR_A11,Tu_S11,T_S11,Uu_S11,U_S11,P_S11,T1_A11
2021-03-12T12:00:00Z,00000200,21000000,,,,,,,0000.36,0000.05,0000.40,16.9,24.4,,00.0,0636.7,30.9
2021-03-12T12:01:00Z,00000200,21000000,,,,,,,0000.00,0000.09,0000.18,17.0,24.4,,00.0,0636.8,30.9
2021-03-12T12:02:00Z,00000200,21000000,,,,,,,-000.25,-000.18,-000.28,17.0,24.5,,00.0,0636.7,30.9
2021-03-12T12:03:00Z,00000200,61000000,,,,,,,0000.29,0000.25,-000.10,17.0,24.5,,00.0,0636.7,30.9
2021-03-12T12:04:00Z,00000200,41000000,0001.00,0000.40,0000.20,-000.03,0000.31,0000.03,0000.36,0000.26,0000.52,17.1,24.3,,00.0,0637.6,30.9
2021-03-12T12:05:00Z,00000200,01000000,0000.21,0000.70,0000.41,0000.21,0000.06,0000.31,0000.37,0000.08,0000.60,17.2,24.2,,00.0,0637.7,30.9
2021-03-12T12:06:00Z,00000200,01000000,0000.78,0000.78,0000.12,0000.34,0000.10,0000.31,0000.85,0000.74,-000.01,17.1,24.2,,00.0,0637.7,30.9
2021-03-12T12:07:00Z,00000200,01000000,0000.86,0000.66,0000.57,-000.34,0000.02,0000.04,0000.16,0000.21,0000.51,17.1,24.2,,00.0,0637.7,30.9
2021-03-12T12:08:00Z,00000200,01000000,0000.78,0000.40,0000.24,0000.46,0000.21,-000.05,0000.56,0000.90,0000.19,17.0,24.2,,00.0,0637.7,30.9
2021-03-12T12:09:00Z,00000200,01000000,0000.66,0000.51,0000.15,0000.39,0000.31,-000.09,0000.97,0000.20,0000.41,17.0,24.1,,00.0,0637.7,30.9
2021-03-12T12:10:00Z,00000200,01000000,0000.63,0000.61,0000.24,0000.20,0000.12,0000.18,0000.32,0000.56,0000.25,17.0,24.1,,00.0,0637.7,30.9
2021-03-12T12:11:00Z,00000200,01000000,0000.51,0000.27,0000.16,-000.13,-000.10,0000.08,0000.49,0000.64,0000.53,17.0,24.1,,00.0,0637.7,30.9
2021-03-12T12:12:00Z,00000200,01000000,0000.63,0000.71,0000.23,0000.34,0000.27,0000.24,0000.40,-000.02,0000.26,17.0,24.1,,00.0,0637.7,30.9
2021-03-12T12:13:00Z,00000200,01000000,0000.87,0000.56,0000.33,0000.18,0000.27,0000.05,0000.25,0000.56,0000.48,17.0,24.1,,00.0,0637.7,30.9
2021-03-12T12:14:00Z,00000200,01000000,0000.90,0000.40,0000.46,0000.11,0000.08,0000.23,0000.38,0000.45,-000.00,17.1,24.1,,00.0,0637.7,30.9
2021-03-12T12:15:00Z,00000200,01000000,0001.09,0000.44,0000.10,0000.17,0000.25,0000.24,0000.20,0000.13,0000.29,17.1,24.1,,00.0,0637.7,30.9
2021-03-12T12:16:00Z,00000200,01000000,0001.17,0000.66,0000.23,0000.19,0000.13,0000.21,0000.40,0000.29,0000.09,17.2,24.1,,00.0,0637.7,30.9
2021-03-12T12:17:00Z,00000200,01000000,0000.91,0000.60,0000.36,0000.17,0000.05,0000.11,0000.20,0000.26,0000.45,17.2,24.2,,00.0,0637.7,30.9
2021-03-12T12:18:00Z,00000200,01000000,0000.51,0000.38,0000.11,0000.23,0000.01,0000.09,0000.72,0000.56,0000.16,17.3,24.1,,00.0,0637.7,30.9
2021-03-12T12:19:00Z,00000200,01000000,0000.12,0000.64,0000.16,0000.40,0000.00,-000.10,0000.08,0000.09,0000.27,17.3,24.1,,00.0,0637.7,30.9
2021-03-12T12:20:00Z,00000200,01000000,0000.72,0000.12,0000.29,0000.27,0000.32,0000.30,0000.72,0000.80,0000.26,17.2,24.1,,00.0,0637.7,30.9
2021-03-12T12:21:00Z,00000200,01000000,0000.49,0000.54,0000.16,-000.43,-000.24,0000.08,0000.43,0000.09,0000.48,17.2,24.1,,00.0,0637.7,30.9
2021-03-12T12:22:00Z,00000200,01000000,0000.46,0000.58,0000.44,0000.15,0000.07,-000.03,0000.51,0000.39,0000.25,17.2,24.1,,00.0,0637.7,30.9
2021-03-12T12:23:00Z,00000200,01000000,0000.43,0000.71,0000.39,-000.42,0000.03,0000.12,0000.33,0000.88,0000.23,17.2,24.1,,00.0,0637.7,30.9
2021-03-12T12:24:00Z,00000200,01000000,0000.51,0000.59,0000.26,-000.43,0000.01,0000.43,0000.38,-000.08,-000.04,17.1,24.1,,00.0,0637.6,30.9
2021-03-12T12:25:00Z,00000200,01000000,0000.52,0000.14,0000.40,-000.42,0000.02,0000.02,0000.63,0000.58,0000.85,17.1,24.1,,00.0,0637.6,30.9
2021-03-12T12:26:00Z,00000200,01000000,0001.09,0000.38,0000.40,-000.07,0000.07,0000.20,0000.29,0000.77,0000.18,17.1,24.1,,00.0,0637.6,30.9
2021-03-12T12:27:00Z,00000200,01000000,0000.59,0000.56,0000.32,-000.34,0000.25,0000.29,0000.16,-000.45,0000.22,17.1,24.1,,00.0,0637.6,30.9
2021-03-12T12:28:00Z,00000200,01000000,0000.74,0000.39,0000.30,0000.04,0000.20,0000.23,0000.77,0000.81,0000.35,17.1,24.1,,00.0,0637.6,30.9
2021-03-12T12:29:00Z,00000200,01000000,0000.57,0000.56,0000.28,-000.49,0000.31,-000.03,0000.62,0000.68,0000.30,17.2,24.1,,00.0,0637.6,30.9
2021-03-12T12:30:00Z,00000200,01000000,0000.49,0000.49,0000.34,-000.15,0000.05,0000.27,0000.28,0000.48,0000.50,17.3,24.1,,00.0,0637.6,30.9
2021-03-12T12:31:00Z,00000200,01000000,0000.53,0000.47,0000.23,0000.56,0000.01,-000.03,0000.89,0000.16,0000.29,17.4,24.2,,00.0,0637.6,31.0
2021-03-12T12:32:00Z,00000200,01000000,0000.88,0000.48,0000.11,-000.09,0000.25,0000.04,0000.07,0000.74,0000.54,17.4,24.2,,00.0,0637.6,31.0
2021-03-12T12:33:00Z,00000200,01000000,0000.61,0000.39,0000.25,-000.04,0000.18,0000.10,0000.30,0000.05,-000.12,17.5,24.3,,00.0,0637.6,31.0
2021-03-12T12:34:00Z,00000200,01000000,0000.70,0000.37,0000.34,0000.12,0000.15,0000.27,0000.20,0000.35,0000.38,17.6,24.3,,00.0,0637.6,31.0
2021-03-12T12:35:00Z,00000200,01000000,0000.87,0000.53,-000.00,0000.07,0000.15,-000.29,0000.07,0000.27,0000.32,17.7,24.4,,00.0,0637.7,31.0
2021-03-12T12:36:00Z,00000200,01000000,0000.04,0000.65,0000.03,0000.53,-000.02,-000.03,0000.83,0000.40,0000.13,17.7,24.4,,00.0,0637.7,31.0
2021-03-12T12:37:00Z,00000200,01000000,0000.54,0000.46,0000.31,-000.04,0000.23,-000.10,0000.11,0000.15,0000.29,17.7,24.4,,00.0,0637.7,31.0
2021-03-12T12:38:00Z,00000200,01000000,0000.33,0000.50,0000.38,0000.12,-000.05,0000.12,0000.27,0000.09,0000.07,17.7,24.4,,00.0,0637.7,31.0
2021-03-12T12:39:00Z,00000200,01000000,0000.57,0000.53,0000.39,-000.09,0000.16,0000.23,0000.08,0000.35,0000.03,17.7,24.4,,00.0,0637.7,31.0
2021-03-12T12:40:00Z,00000200,01000000,0000.81,0000.78,0000.28,-000.19,0000.09,0000.07,0000.38,0000.26,0000.23,17.7,24.4,,00.0,0637.7,31.0
2021-03-12T12:41:00Z,00000200,01000000,0001.08,0000.51,0000.24,0000.22,-000.07,0000.25,0000.21,-000.01,0000.20,17.6,24.4,,00.0,0637.7,30.9
2021-03-12T12:42:00Z,00000200,01000000,0000.36,0000.41,0000.21,0000.03,0000.05,0000.24,0000.18,0000.19,-000.01,17.6,24.4,,00.0,0637.7,30.9
2021-03-12T12:43:00Z,00000200,01000000,0000.86,0000.68,0000.55,0000.30,0000.29,0000.20,-000.16,-000.24,-000.03,17.6,24.4,,00.0,0637.8,30.9
2021-03-12T12:44:00Z,00000200,01000000,0000.51,0000.56,0000.17,0000.47,0000.18,0000.18,0000.44,0000.36,0000.21,17.6,24.4,,00.0,0637.7,30.9
2021-03-12T12:45:00Z,00000200,01000000,0000.35,0000.39,0000.30,0000.22,0000.04,0000.10,0000.22,0000.13,0000.16,17.5,24.4,,00.0,0637.7,30.9
2021-03-12T12:46:00Z,00000200,01000000,0000.25,0000.61,0000.40,-000.10,0000.10,0000.18,0000.56,0000.39,-000.01,17.5,24.4,,00.0,0637.7,30.9
2021-03-12T12:47:00Z,00000200,01000000,0000.32,0000.65,0000.31,0000.08,0000.18,0000.12,0000.22,0000.25,0000.45,17.5,24.3,,00.0,0637.7,30.9
2021-03-12T12:48:00Z,00000200,01000000,0000.68,0000.52,0000.22,-000.35,0000.07,0000.30,0000.78,0001.07,0000.56,17.4,24.3,,00.0,0637.7,30.9
2021-03-12T12:49:00Z,00000200,01000000,0000.79,0000.62,0000.19,-000.15,0000.12,-000.09,0000.45,0000.03,0000.23,17.4,24.3,,00.0,0637.7,30.9
2021-03-12T12:50:00Z,00000200,01000000,0000.51,0000.61,0000.23,0000.02,0000.11,-000.00,0000.43,0000.69,0000.47,17.3,24.3,,00.0,0637.7,30.9
2021-03-12T12:51:00Z,00000200,01000000,0000.93,0000.41,0000.33,0000.86,0000.08,0000.09,0000.56,0000.21,0000.19,17.3,24.2,,00.0,0637.7,30.9
2021-03-12T12:52:00Z,00000200,01000000,0001.16,0000.94,0000.44,0000.05,0000.07,0000.12,0001.03,0000.88,0000.53,17.3,24.2,,00.0,0637.5,30.9
2021-03-12T12:53:00Z,00000200,01000000,0000.21,0000.46,0000.23,0000.09,0000.15,0000.23,0000.64,0001.18,0000.66,17.3,24.2,,00.0,0636.8,30.9
2021-03-12T12:54:00Z,00000200,01000000,0000.73,0000.55,0000.34,-000.04,0000.10,0000.04,0000.49,-000.04,0000.17,17.3,24.2,,00.0,0636.7,30.9
2021-03-12T12:55:00Z,00000200,01000000,0000.76,0000.54,0000.34,0000.06,0000.25,0000.18,0000.25,0000.49,0000.16,17.2,24.2,,00.0,0636.7,30.9
2021-03-12T12:56:00Z,00000200,01000000,0000.53,0000.53,0000.46,0000.13,-000.02,0000.10,0000.38,0000.18,0000.49,17.2,24.1,,00.0,0636.7,30.9
2021-03-12T12:57:00Z,00000200,41000000,,,,,,,-000.64,-000.28,-000.56,17.2,24.2,,00.0,0636.7,30.9
2021-03-12T12:58:00Z,00000200,61000000,,,,,,,0000.53,0000.05,0000.55,16.9,24.3,,00.0,0635.8,30.9
2021-03-12T12:59:00Z,00000200,21000000,,,,,,,0000.40,0000.45,0000.08,16.9,24.4,,00.0,0635.8,30.9
